Hourly Data Report for July 31, 2012

HALIFAX STANFIELD INT'L A
NOVA SCOTIA

44°52'48.060" N
63°30'00.050" W
145.40 m
8202250
71395
YHZ

Download Data

Hourly Data (July 2012)
Hourly Data Report for July 31, 2012
TIME
LST
Temp Definition
°C
Dew Point Definition
°C
Rel Hum Definition
%
Precip. Amount Definition
mm

Wind Dir Definition
10's deg

Wind Spd Definition
km/h
Visibility Definition
km
Stn Press Definition
kPa
Hmdx Definition


Wind Chill Definition


Weather Definition


00:00 16.4 13.1 81   36 9 24.1 100.17     Clear
01:00 17.1 13.9 81   31 11 24.1 100.16     Clear
02:00 16.5 13.8 84   30 9 24.1 100.18     Clear
03:00 15.8 13.5 86   25 6 24.1 100.21     Mainly Clear
04:00 14.9 13.6 92   21 13 24.1 100.22     Clear
05:00 14.7 13.8 94   22 13 24.1 100.27     Clear
06:00 15.6 14.4 93   21 13 24.1 100.28     Mainly Clear
07:00 17.1 15.2 89   22 11 24.1 100.28     Mainly Clear
08:00 20.1 15.6 75   27 13 24.1 100.30     Mainly Clear
09:00 22.4 17.2 72   28 15 24.1 100.27 28   Mainly Clear
10:00 24.5 16.9 63   29 11 24.1 100.25 30   Mainly Clear
11:00 26.0 16.7 57   29 9 24.1 100.24 31   Mainly Clear
12:00 27.5 16.6 51   24 19 24.1 100.22 33   Mainly Clear
13:00 26.9 16.4 53   23 19 24.1 100.20 32   Mainly Clear
14:00 28.7 17.1 50   23 13 24.1 100.17 34   Mainly Clear
15:00 28.5 16.8 49   23 19 24.1 100.15 34   Mainly Clear
16:00 28.5 17.0 50   23 19LegendEE 24.1 100.13 34   Mainly Clear
17:00 27.5 17.0 53   23 19LegendEE 24.1 100.14 33   Mainly Clear
18:00 25.5 16.5 58   23 15LegendEE 24.1 100.15 30   Mostly Cloudy
19:00 23.4 15.5 61   25 6 24.1 100.16 28   Mostly Cloudy
20:00 20.5 15.0 71   25 7 24.1 100.17     Mostly Cloudy
21:00 20.1 15.0 72   25 6 24.1 100.21     Cloudy
22:00 18.3 16.3 88   25 6 24.1 100.22     Cloudy
23:00 18.0 15.5 85   25 7 24.1 100.24     Cloudy

Notes on Data Quality.

Legend

  • E = Estimated
  • M = Missing
  • NA = Not Available*
  • [empty] = Indicates an unobserved value
Date modified: